Regional Weather Roundup
Issued by NWS

Home | Current Version | Previous Version | Text Only | Print | Product List | Glossary On
Versions: 1 2 3 4 5 6 7 8 9 10 11 12 13 14 15 16 17 18 19 20 21 22 23 24 25 26 27 28 29 30 31 32 33 34 35 36 37 38 39 40 41 42 43 44 45 46 47 48 49 50
801
ASUS44 KEWX 250703
RWRTX
SOUTH TEXAS REGIONAL WEATHER ROUNDUP
NATIONAL WEATHER SERVICE AUSTIN/SAN ANTONIO TX
200 AM CDT THU MAY 25 2017

NOTE: "FAIR" INDICATED FEW OR NO CLOUDS BELOW 12,000 FEET WITH NO
SIGNIFICANT WEATHER AND/OR OBSTRUCTIONS TO VISIBILITY.

* - THESE STATIONS ARE NOT NWS OR FAA STATIONS...AND ARE NOT SUBJECT
    TO NWS AND FAA QUALITY CONTROL.

TXZ171-172-183>190-250800-
TEXAS HILL COUNTRY AND EDWARDS PLATEAU

CITY           SKY/WX    TMP DP  RH WIND       PRES   REMARKS
JUNCTION       CLEAR     64  49  57 S3        29.75F
*LLANO         PTCLDY    59  54  82 SW3       29.77F
BURNET         PTCLDY    62  51  67 CALM      29.76F
*HORSESHOE BAY NOT AVBL
*KERRVILLE     CLEAR     55  51  85 CALM      29.78F
*FREDERICKSBRG PTCLDY    60  48  64 CALM      29.78S
*ROCKSPRINGS   CLEAR     64  46  52 S8        29.81F
*BOERNE STAGE  CLEAR     63  45  51 CALM      29.80S
*CASTROVILLE   CLEAR     63  51  64 S5        29.79S
HONDO          CLEAR     64  53  67 SE8       29.77F
*UVALDE        CLEAR     60  54  81 CALM      29.77S
DEL RIO        CLEAR     66  51  58 E7        29.72F
LAUGHLIN AFB   NOT AVBL
CARRIZO SPRGS  CLEAR     63  52  67 SE6       29.73F
*EAGLE PASS    NOT AVBL
$$

TXZ173-191>194-202-209-217>225-228-250800-
CENTRAL AND SOUTH CENTRAL TEXAS

CITY           SKY/WX    TMP DP  RH WIND       PRES   REMARKS
GEORGETOWN     CLEAR     63  50  63 S5        29.73F
AUSTIN/BERGSTM PTCLDY    61  54  77 SW5       29.74F
AUSTIN/MABRY   CLEAR     65  54  67 CALM      29.74F
*AUSTIN/EXEC   CLEAR     61  55  82 CALM      29.75F
*LAGO VISTA    CLEAR     71  48  44 SW3       29.75F
SAN MARCOS     CLEAR     55  52  88 S3        29.77S
NEW BRAUNFELS  CLEAR     59  54  83 SW7       29.75S
RANDOLPH AFB   CLEAR     66  52  60 S7        29.77S
PT SAN ANTONIO CLEAR     64  53  67 S7        29.75S
SAN ANTONIO    CLEAR     69  50  50 S9        29.77F
STINSON FIELD  CLEAR     66  52  60 S5        29.75S
*LA GRANGE     CLEAR     64  55  70 S5        29.74F
*GIDDINGS      CLEAR     59  56  88 CALM      29.75F
*GONZALES      CLEAR     64  55  70 S6        29.76S HAZE
$$

TXZ163>164-176>182-195>201-210>213-226-227-235-250800-
SOUTHEAST TEXAS

CITY           SKY/WX    TMP DP  RH WIND       PRES   REMARKS
COLLEGE STN    CLEAR     63  54  72 S3        29.74F
*BRYAN         CLEAR     63  51  63 S6        29.75F
*CALDWELL      NOT AVBL
*CROCKETT      CLEAR     55  54  94 CALM      29.77F
*BRENHAM       CLEAR     62  56  78 CALM      29.76F
HUNTSVILLE     CLEAR     62  51  67 S3        29.74S
CONROE         CLEAR     55  53  93 CALM      29.75F
HOUSTON BUSH   CLEAR     67  52  58 S7        29.76F
HOUSTON HOBBY  CLEAR     65  54  67 S6        29.78R
*HOUSTON SW AP CLEAR     57  56  94 CALM      29.79S
PEARLAND       CLEAR     66  57  72 CALM      29.79S
HOUSTON HOOKS  CLEAR     64  53  67 S3        29.76F
ELLINGTON FLD  NOT AVBL
SUGAR LAND     CLEAR     65  58  78 CALM      29.77S
*HOUSTON EXEC  CLEAR     63  55  77 SW6       29.78F
*CLEVELAND MUN CLEAR     56  55  95 CALM      29.76F
*WHARTON       CLEAR     63  58  85 SE3       29.79S
*COLUMBUS      NOT AVBL
*EAGLE LAKE    SUNNY     68  62  80 SW7       29.77F
$$

TXZ214>216-236>238-250800-
THE UPPER TEXAS COAST

CITY           SKY/WX    TMP DP  RH WIND       PRES   REMARKS
*ORANGE        CLEAR     56  56  99 CALM      29.78F
PORT ARTHUR    CLEAR     57  55  93 S3        29.76F
GALVESTON      CLEAR     72  60  66 SE7       29.79R
ANGLETON       CLEAR     64  61  90 CALM      29.78S
*BAY CITY      CLEAR     64  62  93 CALM      29.78S
PALACIOS       CLEAR     73  62  68 S8        29.78S
$$

TXZ229>234-239>247-250800-
TEXAS COASTAL BEND AND RIO GRANDE PLAINS

CITY           SKY/WX    TMP DP  RH WIND       PRES   REMARKS
VICTORIA       CLEAR     66  61  84 S6        29.78S
*BEEVILLE      CLEAR     64  60  85 S3        29.78F
ROCKPORT       CLEAR     75  59  57 S9        29.78S
*PORT ARANSAS  CLEAR     75  58  54 S10G22    29.78S
*PORT LAVACA   CLEAR     65  64  95 CALM      29.78F
*INGLESIDE     CLEAR     73  61  66 S7        29.78S
CORPUS CHRISTI CLEAR     62  60  93 S6        29.78S
CORPUS NAS     CLEAR     75  63  66 S12       29.78S
*ROBSTOWN      CLEAR     64  60  86 S3        29.79S
ALICE          CLEAR     62  55  77 S6        29.78S
KINGSVILLE NAS CLEAR     63  60  90 S7        29.78S
COTULLA        CLEAR     68  53  58 SE9       29.76S
*FAITH RANCH   CLEAR     70  52  52 SE7       29.74F
LAREDO         CLEAR     71  54  54 SE14      29.76S
$$

TXZ248>255-250800-
DEEP SOUTH TEXAS

CITY           SKY/WX    TMP DP  RH WIND       PRES   REMARKS
BROWNSVILLE    CLEAR     69  62  78 SE9       29.81S
PORT ISABEL    CLEAR     72  63  73 SE10      29.80S
*SOUTH PADRE   NOT AVBL
HARLINGEN      CLEAR     65  62  90 S10       29.80S
*HEBBRONVILLE  CLEAR     67  51  56 S8        29.80S
MCALLEN        CLEAR     70  60  70 SE8       29.80S
*WESLACO       CLEAR     69  59  71 S9        29.79S
FALFURRIAS     CLEAR     65  57  75 S3        29.79S
EDINBURG       CLEAR     68  57  67 S3        29.80S
*ZAPATA        CLEAR     71  57  61 SE12      29.76F
$$

TXZ213>215-236>238-242>244-246-247-251-254-255-250800-
CMAN STATIONS

STATION/POSITION TIME  TEMP    WIND        PRES    WAVE
                       AIR SEA DIR/SP/G            HT/PER
                 (UTC) (F)     (DEG/KT/KT) (MB)    (FT/S)
SABINE PASS      0630   71 79  100/  4/  5 1009.5
SEA RIM ST PARK  0600   71     100/  6/  6 1008.9
NORTH JETTY/GLS  0630      77  120/  9/ 10 1007.9
EAGLE POINT      0630   76 77  120/ 10/ 11 1008.2
MORGANS POINT    0630   73 78  130/  5/  6 1008.0
MISSION/ARANSAS  0600   77                 1009.0
PORT O`CONNOR    0630   74     190/  8/ 10 1008.1
PORT ARANSAS     0600   77 79  160/ 19/ 21 1008.5
MALAQUITE BEACH  0630   78 80  150/ 17/ 20 1008.7
BAFFIN BAY       0630   76 78              1008.6
PORT ISABEL      0630   76 83  150/ 12/ 16 1009.3
$$

GMZ080-GMZ150>470-250800-
OFFSHORE BUOY REPORTS

STATION/POSITION TIME  TEMP    WIND        PRES    WAVE
                       AIR SEA DIR/SP/G            HT/PER
                 (UTC) (F)     (DEG/KT/KT) (MB)    (FT/S)
20 E GALVESTON   0550   77 78   90/  8/  8 1008.6    1/ 4
90 E PT ARANSAS  0550   77 79  190/ 12/ 14 1009.1    1/ 7
35 NE PT MANSFLD 0650   78     160/ 17/ 19 1008.1    3/ 7
200 E PT ISABEL  0550   77 80  110/  8/ 10 1011.1    4/ 6
$$




USA.gov is the U.S. government's official web portal to all federal, state and local government web resources and services.